Time,TemperatureF,DewpointF,PressureIn,WindDirection,WindDirectionDegrees,WindSpeedMPH,WindSpeedGustMPH,Humidity,HourlyPrecipIn,Conditions,Clouds,dailyrainin,SoftwareType,DateUTC
2013-08-06 00:00:00,90.9,66.0,22.07,SSE,147,1.0,5.0,44,0.00,,SKC,0.00,VWS V14.01,2013-08-06 05:00:00,
2013-08-06 00:03:00,86.4,66.2,22.07,South,177,1.0,1.0,51,0.00,,SKC,0.00,VWS V14.01,2013-08-06 05:03:00,
2013-08-06 00:09:00,86.3,66.6,22.07,South,177,0.0,2.0,52,0.00,,SKC,0.00,VWS V14.01,2013-08-06 05:09:00,
2013-08-06 00:15:00,86.0,66.3,22.07,South,177,0.0,2.0,52,0.00,,SKC,0.00,VWS V14.01,2013-08-06 05:15:00,
2013-08-06 00:21:00,85.8,66.2,22.07,South,177,0.0,2.0,52,0.00,,SKC,0.00,VWS V14.01,2013-08-06 05:21:00,
2013-08-06 00:27:00,85.5,66.4,22.07,South,177,0.0,2.0,53,0.00,,SKC,0.00,VWS V14.01,2013-08-06 05:27:00,
2013-08-06 00:30:00,87.7,66.2,22.07,South,182,1.0,6.0,49,0.00,,SKC,0.00,VWS V14.01,2013-08-06 05:30:00,
2013-08-06 00:33:00,85.2,66.2,22.07,South,177,1.0,1.0,53,0.00,,SKC,0.00,VWS V14.01,2013-08-06 05:33:00,
2013-08-06 00:39:00,84.8,66.3,22.07,ESE,103,3.0,3.0,54,0.00,,SKC,0.00,VWS V14.01,2013-08-06 05:39:00,
2013-08-06 00:45:00,84.7,66.2,22.07,SE,134,1.0,4.0,54,0.00,,SKC,0.00,VWS V14.01,2013-08-06 05:45:00,
2013-08-06 00:51:00,84.7,66.2,22.07,SE,140,1.0,4.0,54,0.00,,SKC,0.00,VWS V14.01,2013-08-06 05:51:00,
2013-08-06 00:57:00,84.8,66.8,22.07,SSW,201,1.0,4.0,55,0.00,,SKC,0.00,VWS V14.01,2013-08-06 05:57:00,
2013-08-06 01:00:00,86.5,66.2,22.07,South,177,0.0,3.0,51,0.00,,SKC,0.00,VWS V14.01,2013-08-06 06:00:00,
2013-08-06 01:03:00,85.0,67.0,22.07,South,183,0.0,2.0,55,0.00,,SKC,0.00,VWS V14.01,2013-08-06 06:03:00,
2013-08-06 01:09:00,85.5,67.0,22.07,South,188,5.0,7.0,54,0.00,,SKC,0.00,VWS V14.01,2013-08-06 06:09:00,
2013-08-06 01:15:00,86.1,67.0,22.07,South,176,5.0,8.0,53,0.00,,SKC,0.00,VWS V14.01,2013-08-06 06:15:00,
2013-08-06 01:21:00,86.7,67.5,22.07,SW,218,7.0,13.0,53,0.00,,SKC,0.00,VWS V14.01,2013-08-06 06:21:00,
2013-08-06 01:27:00,86.9,67.7,22.07,SSW,202,7.0,13.0,53,0.00,,SKC,0.00,VWS V14.01,2013-08-06 06:27:00,
2013-08-06 01:30:00,85.3,66.2,22.07,South,177,0.0,2.0,53,0.00,,SKC,0.00,VWS V14.01,2013-08-06 06:30:00,
2013-08-06 01:33:00,87.0,68.4,22.07,South,178,2.0,9.0,54,0.00,,SKC,0.00,VWS V14.01,2013-08-06 06:33:00,
2013-08-06 01:39:00,87.1,69.0,22.07,SSW,198,5.0,9.0,55,0.00,,SKC,0.00,VWS V14.01,2013-08-06 06:39:00,
2013-08-06 01:45:00,87.0,68.9,22.07,South,169,8.0,9.0,55,0.00,,SKC,0.00,VWS V14.01,2013-08-06 06:45:00,
2013-08-06 01:51:00,86.9,69.3,22.07,SE,133,4.0,9.0,56,0.00,,SKC,0.00,VWS V14.01,2013-08-06 06:51:00,
2013-08-06 01:57:00,86.7,69.7,22.07,SSW,207,4.0,9.0,57,0.00,,SKC,0.00,VWS V14.01,2013-08-06 06:57:00,
2013-08-06 02:00:00,84.9,66.9,22.07,SSW,195,2.0,5.0,55,0.00,,SKC,0.00,VWS V14.01,2013-08-06 07:00:00,
2013-08-06 02:03:00,86.5,69.5,22.07,SSE,166,3.0,7.0,57,0.00,,SKC,0.00,VWS V14.01,2013-08-06 07:03:00,
2013-08-06 02:09:00,86.4,69.4,22.07,WSW,244,7.0,11.0,57,0.00,,SKC,0.00,VWS V14.01,2013-08-06 07:09:00,
2013-08-06 02:15:00,86.2,69.7,22.07,South,176,2.0,11.0,58,0.00,,SKC,0.00,VWS V14.01,2013-08-06 07:15:00,
2013-08-06 02:21:00,86.0,69.5,22.07,South,173,3.0,11.0,58,0.00,,SKC,0.00,VWS V14.01,2013-08-06 07:21:00,
2013-08-06 02:27:00,85.8,69.8,22.07,SSW,196,8.0,11.0,59,0.00,,SKC,0.00,VWS V14.01,2013-08-06 07:27:00,
2013-08-06 02:30:00,87.0,67.8,22.07,SSW,202,5.0,13.0,53,0.00,,SKC,0.00,VWS V14.01,2013-08-06 07:30:00,
2013-08-06 02:33:00,85.6,69.6,22.07,SW,223,5.0,7.0,59,0.00,,SKC,0.00,VWS V14.01,2013-08-06 07:33:00,
2013-08-06 02:39:00,85.4,69.9,22.07,SSW,199,5.0,8.0,60,0.00,,SKC,0.00,VWS V14.01,2013-08-06 07:39:00,
2013-08-06 02:45:00,85.2,70.2,22.07,SSW,201,6.0,8.0,61,0.00,,SKC,0.00,VWS V14.01,2013-08-06 07:45:00,
2013-08-06 02:51:00,85.0,70.1,22.07,SW,217,6.0,12.0,61,0.00,,SKC,0.00,VWS V14.01,2013-08-06 07:51:00,
2013-08-06 02:57:00,84.9,70.4,22.07,South,187,4.0,12.0,62,0.00,,SKC,0.00,VWS V14.01,2013-08-06 07:57:00,
2013-08-06 03:00:00,86.6,69.6,22.07,South,173,4.0,9.0,57,0.00,,SKC,0.00,VWS V14.01,2013-08-06 08:00:00,
2013-08-06 03:03:00,84.8,70.3,22.07,SSW,200,6.0,8.0,62,0.00,,SKC,0.00,VWS V14.01,2013-08-06 08:03:00,
2013-08-06 03:09:00,84.6,70.6,22.07,SSE,165,2.0,10.0,63,0.00,,SKC,0.00,VWS V14.01,2013-08-06 08:09:00,
2013-08-06 03:15:00,84.4,70.4,22.07,SSW,199,5.0,10.0,63,0.00,,SKC,0.00,VWS V14.01,2013-08-06 08:15:00,
2013-08-06 03:21:00,84.3,70.8,22.07,South,190,2.0,10.0,64,0.00,,SKC,0.00,VWS V14.01,2013-08-06 08:21:00,
2013-08-06 03:27:00,84.1,70.6,22.07,SSE,165,4.0,10.0,64,0.00,,SKC,0.00,VWS V14.01,2013-08-06 08:27:00,
2013-08-06 03:30:00,85.6,69.6,22.07,SW,217,3.0,11.0,59,0.00,,SKC,0.00,VWS V14.01,2013-08-06 08:30:00,
2013-08-06 03:33:00,84.0,70.5,22.07,SSW,208,5.0,7.0,64,0.00,,SKC,0.00,VWS V14.01,2013-08-06 08:33:00,
2013-08-06 03:39:00,83.9,70.9,22.07,SSW,209,4.0,7.0,65,0.00,,SKC,0.00,VWS V14.01,2013-08-06 08:39:00,
2013-08-06 03:45:00,83.9,70.9,22.07,SSW,204,7.0,10.0,65,0.00,,SKC,0.00,VWS V14.01,2013-08-06 08:45:00,
2013-08-06 03:51:00,83.9,70.9,22.07,SSW,211,4.0,10.0,65,0.00,,SKC,0.00,VWS V14.01,2013-08-06 08:51:00,
2013-08-06 03:57:00,83.8,71.2,22.07,WSW,257,5.0,10.0,66,0.00,,SKC,0.00,VWS V14.01,2013-08-06 08:57:00,
2013-08-06 04:00:00,84.8,70.3,22.07,South,180,5.0,12.0,62,0.00,,SKC,0.00,VWS V14.01,2013-08-06 09:00:00,
2013-08-06 04:03:00,83.7,71.1,22.07,SSW,196,7.0,7.0,66,0.00,,SKC,0.00,VWS V14.01,2013-08-06 09:03:00,
2013-08-06 04:10:00,83.6,71.5,22.07,SSW,210,6.0,9.0,67,0.00,,SKC,0.00,VWS V14.01,2013-08-06 09:10:00,
2013-08-06 04:16:00,83.4,71.3,22.07,SSW,199,4.0,9.0,67,0.00,,SKC,0.00,VWS V14.01,2013-08-06 09:16:00,
2013-08-06 04:22:00,83.3,71.6,22.07,SSW,211,6.0,9.0,68,0.00,,SKC,0.00,VWS V14.01,2013-08-06 09:22:00,
2013-08-06 04:28:00,83.3,71.6,22.07,South,184,5.0,9.0,68,0.00,,SKC,0.00,VWS V14.01,2013-08-06 09:28:00,
2013-08-06 04:30:00,84.1,70.6,22.07,SSW,200,7.0,10.0,64,0.00,,SKC,0.00,VWS V14.01,2013-08-06 09:30:00,
2013-08-06 04:34:00,83.3,71.6,22.07,SSW,212,7.0,10.0,68,0.00,,SKC,0.00,VWS V14.01,2013-08-06 09:34:00,
2013-08-06 04:40:00,83.2,71.6,22.07,SW,232,5.0,10.0,68,0.00,,SKC,0.00,VWS V14.01,2013-08-06 09:40:00,
2013-08-06 04:46:00,83.0,71.4,22.07,WSW,250,4.0,10.0,68,0.00,,SKC,0.00,VWS V14.01,2013-08-06 09:46:00,
2013-08-06 04:52:00,82.9,71.7,22.07,SSW,194,5.0,10.0,69,0.00,,SKC,0.00,VWS V14.01,2013-08-06 09:52:00,
2013-08-06 04:58:00,82.8,71.6,22.07,South,179,8.0,10.0,69,0.00,,SKC,0.00,VWS V14.01,2013-08-06 09:58:00,
2013-08-06 05:00:00,82.7,71.5,22.07,SSW,197,6.0,10.0,69,0.00,,SKC,0.00,VWS V14.01,2013-08-06 10:00:00,
2013-08-06 05:04:00,82.6,71.4,22.07,South,173,5.0,7.0,69,0.00,,SKC,0.00,VWS V14.01,2013-08-06 10:04:00,
2013-08-06 05:10:00,82.5,71.7,22.07,SW,219,6.0,10.0,70,0.00,,SKC,0.00,VWS V14.01,2013-08-06 10:10:00,
2013-08-06 05:16:00,82.3,71.5,22.07,South,186,3.0,10.0,70,0.00,,SKC,0.00,VWS V14.01,2013-08-06 10:16:00,
2013-08-06 05:22:00,82.2,71.4,22.07,South,178,3.0,10.0,70,0.00,,SKC,0.00,VWS V14.01,2013-08-06 10:22:00,
2013-08-06 05:28:00,82.0,71.3,22.07,South,185,4.0,11.0,70,0.00,,SKC,0.00,VWS V14.01,2013-08-06 10:28:00,
2013-08-06 05:30:00,83.3,71.6,22.07,SSW,206,10.0,10.0,68,0.00,,SKC,0.00,VWS V14.01,2013-08-06 10:30:00,
2013-08-06 05:34:00,81.9,71.6,22.07,SSW,205,5.0,8.0,71,0.00,,SKC,0.00,VWS V14.01,2013-08-06 10:34:00,
2013-08-06 05:40:00,81.7,71.4,22.07,SW,221,6.0,9.0,71,0.00,,SKC,0.00,VWS V14.01,2013-08-06 10:40:00,
2013-08-06 05:46:00,81.7,71.8,22.07,SW,225,4.0,9.0,72,0.00,,SKC,0.00,VWS V14.01,2013-08-06 10:46:00,
2013-08-06 05:52:00,81.7,71.8,22.07,SSW,207,5.0,9.0,72,0.00,,SKC,0.00,VWS V14.01,2013-08-06 10:52:00,
2013-08-06 05:58:00,81.5,72.0,22.07,SSE,166,1.0,9.0,73,0.00,,SKC,0.00,VWS V14.01,2013-08-06 10:58:00,
2013-08-06 06:00:00,82.7,71.5,22.07,SSW,197,6.0,10.0,69,0.00,,SKC,0.00,VWS V14.01,2013-08-06 11:00:00,
2013-08-06 06:04:00,81.4,71.9,22.07,South,186,4.0,10.0,73,0.00,,SKC,0.00,VWS V14.01,2013-08-06 11:04:00,
2013-08-06 06:10:00,81.2,71.7,22.07,SSW,203,5.0,10.0,73,0.00,,SKC,0.00,VWS V14.01,2013-08-06 11:10:00,
2013-08-06 06:16:00,81.1,71.6,22.07,West,265,4.0,10.0,73,0.00,,SKC,0.00,VWS V14.01,2013-08-06 11:16:00,
2013-08-06 06:22:00,81.0,71.5,22.07,SW,217,8.0,10.0,73,0.00,,SKC,0.00,VWS V14.01,2013-08-06 11:22:00,
2013-08-06 06:28:00,80.9,71.8,22.07,SW,215,6.0,11.0,74,0.00,,SKC,0.00,VWS V14.01,2013-08-06 11:28:00,
2013-08-06 06:30:00,81.9,71.6,22.07,WSW,251,8.0,12.0,71,0.00,,SKC,0.00,VWS V14.01,2013-08-06 11:30:00,
2013-08-06 06:34:00,80.8,71.7,22.07,SSW,207,5.0,10.0,74,0.00,,SKC,0.00,VWS V14.01,2013-08-06 11:34:00,
2013-08-06 06:40:00,80.7,71.7,22.07,SSE,167,4.0,10.0,74,0.00,,SKC,0.00,VWS V14.01,2013-08-06 11:40:00,
2013-08-06 06:46:00,80.5,71.5,22.07,SSW,192,5.0,11.0,74,0.00,,SKC,0.00,VWS V14.01,2013-08-06 11:46:00,
2013-08-06 06:52:00,80.4,71.4,22.07,SW,216,10.0,12.0,74,0.00,,SKC,0.00,VWS V14.01,2013-08-06 11:52:00,
2013-08-06 06:58:00,80.3,71.7,22.07,SSW,196,6.0,12.0,75,0.00,,SKC,0.00,VWS V14.01,2013-08-06 11:58:00,
2013-08-06 07:00:00,81.4,71.9,22.07,South,180,1.0,9.0,73,0.00,,SKC,0.00,VWS V14.01,2013-08-06 12:00:00,
2013-08-06 07:04:00,80.3,71.7,22.07,SSW,211,5.0,10.0,75,0.00,,SKC,0.00,VWS V14.01,2013-08-06 12:04:00,
2013-08-06 07:10:00,80.2,71.6,22.07,SSE,165,5.0,10.0,75,0.00,,SKC,0.00,VWS V14.01,2013-08-06 12:10:00,
2013-08-06 07:16:00,80.2,71.6,22.07,South,171,9.0,11.0,75,0.00,,SKC,0.00,VWS V14.01,2013-08-06 12:16:00,
2013-08-06 07:22:00,80.3,71.7,22.07,SW,228,8.0,11.0,75,0.00,,SKC,0.00,VWS V14.01,2013-08-06 12:22:00,
2013-08-06 07:28:00,80.3,71.7,22.07,SW,235,8.0,11.0,75,0.00,,SKC,0.00,VWS V14.01,2013-08-06 12:28:00,
2013-08-06 07:30:00,80.8,71.8,22.07,SSW,212,5.0,11.0,74,0.00,,SKC,0.00,VWS V14.01,2013-08-06 12:30:00,
2013-08-06 07:34:00,80.4,71.8,22.07,West,265,6.0,9.0,75,0.00,,SKC,0.00,VWS V14.01,2013-08-06 12:34:00,
2013-08-06 07:40:00,80.6,71.9,22.07,WSW,238,4.0,11.0,75,0.00,,SKC,0.00,VWS V14.01,2013-08-06 12:40:00,
2013-08-06 07:46:00,80.6,71.9,22.07,SSW,204,6.0,11.0,75,0.00,,SKC,0.00,VWS V14.01,2013-08-06 12:46:00,
2013-08-06 08:00:00,80.8,72.1,22.07,SSW,202,6.0,12.0,75,0.00,,SKC,0.00,VWS V14.01,2013-08-06 13:00:00,
2013-08-06 08:30:00,81.5,72.8,22.07,SSW,202,6.0,15.0,75,0.00,,SKC,0.00,VWS V14.01,2013-08-06 13:30:00,
2013-08-06 09:00:00,82.7,72.8,22.07,SSW,202,6.0,12.0,72,0.00,,SKC,0.00,VWS V14.01,2013-08-06 14:00:00,
2013-08-06 09:30:00,83.7,72.5,22.07,SSW,202,6.0,12.0,69,0.00,,SKC,0.00,VWS V14.01,2013-08-06 14:30:00,
2013-08-06 10:00:00,82.7,72.8,22.07,SSW,202,6.0,12.0,72,0.00,,SKC,0.00,VWS V14.01,2013-08-06 15:00:00,
2013-08-06 10:24:00,86.5,72.4,22.07,South,189,7.0,9.0,63,0.00,,SKC,0.00,VWS V14.01,2013-08-06 15:24:00,
2013-08-06 10:30:00,87.1,72.5,22.07,SSW,209,8.0,9.0,62,0.00,,SKC,0.00,VWS V14.01,2013-08-06 15:30:00,
2013-08-06 10:36:00,87.1,72.0,22.07,SSW,209,8.0,11.0,61,0.00,,SKC,0.00,VWS V14.01,2013-08-06 15:36:00,
2013-08-06 10:42:00,87.1,72.5,22.07,South,187,7.0,11.0,62,0.00,,SKC,0.00,VWS V14.01,2013-08-06 15:42:00,
2013-08-06 10:48:00,87.5,71.9,22.07,South,187,10.0,14.0,60,0.00,,SKC,0.00,VWS V14.01,2013-08-06 15:48:00,
2013-08-06 10:54:00,87.9,71.8,22.07,SW,234,8.0,14.0,59,0.00,,SKC,0.00,VWS V14.01,2013-08-06 15:54:00,
2013-08-06 11:00:00,88.3,72.2,22.07,SSW,209,7.0,14.0,59,0.00,,SKC,0.00,VWS V14.01,2013-08-06 16:00:00,
2013-08-06 11:06:00,88.7,72.0,22.07,SSW,212,8.0,12.0,58,0.00,,SKC,0.00,VWS V14.01,2013-08-06 16:06:00,
2013-08-06 11:12:00,89.2,72.5,22.07,SSW,208,8.0,14.0,58,0.00,,SKC,0.00,VWS V14.01,2013-08-06 16:12:00,
2013-08-06 11:18:00,89.7,71.9,22.07,SW,215,9.0,14.0,56,0.00,,SKC,0.00,VWS V14.01,2013-08-06 16:18:00,
2013-08-06 11:24:00,89.8,72.0,22.07,South,181,7.0,14.0,56,0.00,,SKC,0.00,VWS V14.01,2013-08-06 16:24:00,
2013-08-06 11:30:00,90.4,71.5,22.07,SSW,197,7.0,14.0,54,0.00,,SKC,0.00,VWS V14.01,2013-08-06 16:30:00,
2013-08-06 11:36:00,90.6,71.7,22.07,SSW,196,8.0,11.0,54,0.00,,SKC,0.00,VWS V14.01,2013-08-06 16:36:00,
2013-08-06 11:42:00,91.0,72.1,22.07,SSW,196,11.0,12.0,54,0.00,,SKC,0.00,VWS V14.01,2013-08-06 16:42:00,
2013-08-06 11:48:00,91.3,71.2,22.07,SSW,205,8.0,14.0,52,0.00,,SKC,0.00,VWS V14.01,2013-08-06 16:48:00,
2013-08-06 11:54:00,91.9,71.8,22.07,South,191,11.0,14.0,52,0.00,,SKC,0.00,VWS V14.01,2013-08-06 16:54:00,
2013-08-06 12:00:00,92.5,71.8,22.07,WNW,292,6.0,14.0,51,0.00,,SKC,0.00,VWS V14.01,2013-08-06 17:00:00,
2013-08-06 12:06:00,92.6,71.3,22.07,SW,229,5.0,12.0,50,0.00,,SKC,0.00,VWS V14.01,2013-08-06 17:06:00,
2013-08-06 12:12:00,92.8,72.0,22.07,SSW,194,13.0,15.0,51,0.00,,SKC,0.00,VWS V14.01,2013-08-06 17:12:00,
2013-08-06 12:18:00,93.4,71.4,22.07,SSW,205,10.0,15.0,49,0.00,,SKC,0.00,VWS V14.01,2013-08-06 17:18:00,
2013-08-06 12:24:00,93.6,72.2,22.07,West,272,7.0,15.0,50,0.00,,SKC,0.00,VWS V14.01,2013-08-06 17:24:00,
2013-08-06 12:30:00,94.3,71.6,22.07,SSE,163,8.0,15.0,48,0.00,,SKC,0.00,VWS V14.01,2013-08-06 17:30:00,
2013-08-06 12:36:00,94.2,71.5,22.07,South,181,6.0,11.0,48,0.00,,SKC,0.00,VWS V14.01,2013-08-06 17:36:00,
2013-08-06 12:42:00,94.8,72.1,22.07,SSW,193,4.0,12.0,48,0.00,,SKC,0.00,VWS V14.01,2013-08-06 17:42:00,
2013-08-06 12:48:00,94.9,70.9,22.07,South,174,7.0,12.0,46,0.00,,SKC,0.00,VWS V14.01,2013-08-06 17:48:00,
2013-08-06 12:54:00,95.0,71.0,22.07,SSW,207,8.0,12.0,46,0.00,,SKC,0.00,VWS V14.01,2013-08-06 17:54:00,
2013-08-06 13:00:00,95.6,71.5,22.07,South,180,6.0,12.0,46,0.00,,SKC,0.00,VWS V14.01,2013-08-06 18:00:00,
2013-08-06 13:06:00,95.9,71.8,22.07,SSW,211,12.0,12.0,46,0.00,,SKC,0.00,VWS V14.01,2013-08-06 18:06:00,
2013-08-06 13:12:00,95.9,71.8,22.07,West,263,9.0,13.0,46,0.00,,SKC,0.00,VWS V14.01,2013-08-06 18:12:00,
2013-08-06 13:18:00,96.1,72.0,22.07,SSW,204,6.0,13.0,46,0.00,,SKC,0.00,VWS V14.01,2013-08-06 18:18:00,
2013-08-06 13:24:00,96.4,72.3,22.07,SSW,209,11.0,13.0,46,0.00,,SKC,0.00,VWS V14.01,2013-08-06 18:24:00,
2013-08-06 13:30:00,96.8,71.3,22.07,SSW,209,7.0,13.0,44,0.00,,SKC,0.00,VWS V14.01,2013-08-06 18:30:00,
2013-08-06 13:36:00,97.0,71.5,22.07,SW,229,5.0,12.0,44,0.00,,SKC,0.00,VWS V14.01,2013-08-06 18:36:00,
2013-08-06 13:42:00,97.2,72.3,22.07,South,191,10.0,12.0,45,0.00,,SKC,0.00,VWS V14.01,2013-08-06 18:42:00,
2013-08-06 13:48:00,97.3,71.1,22.07,South,175,10.0,12.0,43,0.00,,SKC,0.00,VWS V14.01,2013-08-06 18:48:00,
2013-08-06 13:54:00,97.5,71.3,22.07,West,265,11.0,13.0,43,0.00,,SKC,0.00,VWS V14.01,2013-08-06 18:54:00,
2013-08-06 14:00:00,97.7,72.1,22.07,SW,215,5.0,13.0,44,0.00,,SKC,0.00,VWS V14.01,2013-08-06 19:00:00,
2013-08-06 14:06:00,98.3,71.3,22.07,SSW,203,7.0,12.0,42,0.00,,SKC,0.00,VWS V14.01,2013-08-06 19:06:00,
2013-08-06 14:12:00,98.3,70.6,22.07,South,190,6.0,12.0,41,0.00,,SKC,0.00,VWS V14.01,2013-08-06 19:12:00,
2013-08-06 14:18:00,98.3,72.0,22.07,WSW,239,3.0,14.0,43,0.00,,SKC,0.00,VWS V14.01,2013-08-06 19:18:00,
2013-08-06 14:25:00,98.6,71.6,22.07,SSW,213,7.0,14.0,42,0.00,,SKC,0.00,VWS V14.01,2013-08-06 19:25:00,
2013-08-06 14:30:00,96.9,72.1,22.07,SW,234,9.0,13.0,45,0.00,,SKC,0.00,VWS V14.01,2013-08-06 19:30:00,
2013-08-06 14:31:00,99.1,71.3,22.07,SW,226,7.0,14.0,41,0.00,,SKC,0.00,VWS V14.01,2013-08-06 19:31:00,
2013-08-06 14:37:00,99.0,71.2,22.07,SSE,160,5.0,13.0,41,0.00,,SKC,0.00,VWS V14.01,2013-08-06 19:37:00,
2013-08-06 14:43:00,99.4,70.8,22.07,SW,236,3.0,13.0,40,0.00,,SKC,0.00,VWS V14.01,2013-08-06 19:43:00,
2013-08-06 14:49:00,99.3,70.7,22.07,South,187,3.0,13.0,40,0.00,,SKC,0.00,VWS V14.01,2013-08-06 19:49:00,
2013-08-06 14:55:00,99.7,71.1,22.07,West,267,4.0,13.0,40,0.00,,SKC,0.00,VWS V14.01,2013-08-06 19:55:00,
2013-08-06 15:00:00,97.8,71.5,22.07,SSW,212,7.0,13.0,43,0.00,,SKC,0.00,VWS V14.01,2013-08-06 20:00:00,
2013-08-06 15:01:00,99.6,70.3,22.07,SW,219,7.0,13.0,39,0.00,,SKC,0.00,VWS V14.01,2013-08-06 20:01:00,
2013-08-06 15:07:00,99.7,71.1,22.07,SW,232,7.0,9.0,40,0.00,,SKC,0.00,VWS V14.01,2013-08-06 20:07:00,
2013-08-06 15:13:00,99.7,70.3,22.07,SW,223,8.0,12.0,39,0.00,,SKC,0.00,VWS V14.01,2013-08-06 20:13:00,
2013-08-06 15:19:00,100.3,70.9,22.07,WSW,257,4.0,12.0,39,0.00,,SKC,0.00,VWS V14.01,2013-08-06 20:19:00,
2013-08-06 15:25:00,100.4,71.0,22.07,SW,218,8.0,13.0,39,0.00,,SKC,0.00,VWS V14.01,2013-08-06 20:25:00,
2013-08-06 15:30:00,99.0,70.5,22.07,WNW,294,6.0,14.0,40,0.00,,SKC,0.00,VWS V14.01,2013-08-06 20:30:00,
2013-08-06 15:31:00,100.3,70.9,22.07,SW,221,5.0,13.0,39,0.00,,SKC,0.00,VWS V14.01,2013-08-06 20:31:00,
2013-08-06 15:32:00,100.4,71.0,22.07,WSW,242,8.0,13.0,39,0.00,,SKC,0.00,VWS V14.01,2013-08-06 20:32:00,
2013-08-06 15:37:00,100.5,71.1,22.07,SW,227,5.0,10.0,39,0.00,,SKC,0.00,VWS V14.01,2013-08-06 20:37:00,
2013-08-06 15:43:00,100.6,70.4,22.07,SSW,211,5.0,10.0,38,0.00,,SKC,0.00,VWS V14.01,2013-08-06 20:43:00,
2013-08-06 15:49:00,100.4,70.2,22.07,WSW,248,7.0,11.0,38,0.00,,SKC,0.00,VWS V14.01,2013-08-06 20:49:00,
2013-08-06 15:55:00,100.5,71.1,22.07,WSW,240,5.0,11.0,39,0.00,,SKC,0.00,VWS V14.01,2013-08-06 20:55:00,
2013-08-06 16:00:00,99.5,70.2,22.07,SSW,207,8.0,13.0,39,0.00,,SKC,0.00,VWS V14.01,2013-08-06 21:00:00,
2013-08-06 16:01:00,100.9,70.7,22.07,SSW,195,8.0,11.0,38,0.00,,SKC,0.00,VWS V14.01,2013-08-06 21:01:00,
2013-08-06 16:07:00,101.1,70.8,22.07,West,260,9.0,9.0,38,0.00,,SKC,0.00,VWS V14.01,2013-08-06 21:07:00,
2013-08-06 16:13:00,101.0,69.9,22.07,SSW,207,10.0,10.0,37,0.00,,SKC,0.00,VWS V14.01,2013-08-06 21:13:00,
2013-08-06 16:19:00,100.9,69.9,22.07,SSW,210,5.0,11.0,37,0.00,,SKC,0.00,VWS V14.01,2013-08-06 21:19:00,
2013-08-06 16:25:00,101.0,70.7,22.07,SSW,211,3.0,11.0,38,0.00,,SKC,0.00,VWS V14.01,2013-08-06 21:25:00,
2013-08-06 16:30:00,100.4,71.0,22.07,WSW,242,8.0,13.0,39,0.00,,SKC,0.00,VWS V14.01,2013-08-06 21:30:00,
2013-08-06 16:31:00,101.2,69.3,22.07,SW,221,3.0,11.0,36,0.00,,SKC,0.00,VWS V14.01,2013-08-06 21:31:00,
2013-08-06 16:37:00,101.0,69.9,22.07,SSW,207,10.0,11.0,37,0.00,,SKC,0.00,VWS V14.01,2013-08-06 21:37:00,
2013-08-06 16:43:00,101.0,69.9,22.07,South,188,3.0,11.0,37,0.00,,SKC,0.00,VWS V14.01,2013-08-06 21:43:00,
2013-08-06 16:49:00,101.4,70.3,22.07,SW,216,7.0,11.0,37,0.00,,SKC,0.00,VWS V14.01,2013-08-06 21:49:00,
2013-08-06 16:55:00,101.3,70.2,22.07,SSW,193,4.0,11.0,37,0.00,,SKC,0.00,VWS V14.01,2013-08-06 21:55:00,
2013-08-06 17:00:00,100.9,69.9,22.07,West,270,4.0,11.0,37,0.00,,SKC,0.00,VWS V14.01,2013-08-06 22:00:00,
2013-08-06 17:01:00,100.9,69.9,22.07,West,271,6.0,13.0,37,0.00,,SKC,0.00,VWS V14.01,2013-08-06 22:01:00,
2013-08-06 17:07:00,100.9,69.1,22.07,SW,232,12.0,12.0,36,0.00,,SKC,0.00,VWS V14.01,2013-08-06 22:07:00,
2013-08-06 17:13:00,100.7,70.5,22.07,WSW,254,4.0,12.0,38,0.00,,SKC,0.00,VWS V14.01,2013-08-06 22:13:00,
2013-08-06 17:19:00,101.2,70.1,22.07,SSW,199,6.0,12.0,37,0.00,,SKC,0.00,VWS V14.01,2013-08-06 22:19:00,
2013-08-06 17:25:00,101.0,69.9,22.07,WNW,287,3.0,12.0,37,0.00,,SKC,0.00,VWS V14.01,2013-08-06 22:25:00,
2013-08-06 17:30:00,101.2,69.3,22.07,SW,222,4.0,11.0,36,0.00,,SKC,0.00,VWS V14.01,2013-08-06 22:30:00,
2013-08-06 17:31:00,100.9,69.9,22.07,SSW,202,3.0,12.0,37,0.00,,SKC,0.00,VWS V14.01,2013-08-06 22:31:00,
2013-08-06 17:37:00,100.9,68.2,22.07,South,182,6.0,12.0,35,0.00,,SKC,0.00,VWS V14.01,2013-08-06 22:37:00,
2013-08-06 17:43:00,100.9,69.1,22.07,SSW,197,4.0,12.0,36,0.00,,SKC,0.00,VWS V14.01,2013-08-06 22:43:00,
2013-08-06 17:49:00,101.0,68.3,22.07,SSE,159,2.0,12.0,35,0.00,,SKC,0.00,VWS V14.01,2013-08-06 22:49:00,
2013-08-06 17:55:00,100.8,69.0,22.07,SW,214,5.0,12.0,36,0.00,,SKC,0.00,VWS V14.01,2013-08-06 22:55:00,
2013-08-06 18:00:00,101.0,69.9,22.07,West,273,7.0,13.0,37,0.00,,SKC,0.00,VWS V14.01,2013-08-06 23:00:00,
2013-08-06 18:01:00,101.0,69.2,22.07,NW,304,5.0,12.0,36,0.00,,SKC,0.00,VWS V14.01,2013-08-06 23:01:00,
2013-08-06 18:07:00,101.0,68.3,22.07,SSW,198,6.0,8.0,35,0.00,,SKC,0.00,VWS V14.01,2013-08-06 23:07:00,
2013-08-06 18:13:00,100.7,68.1,22.07,South,184,6.0,13.0,35,0.00,,SKC,0.00,VWS V14.01,2013-08-06 23:13:00,
2013-08-06 18:19:00,100.5,67.9,22.07,SSW,194,5.0,13.0,35,0.00,,SKC,0.00,VWS V14.01,2013-08-06 23:19:00,
2013-08-06 18:25:00,100.4,67.8,22.07,SW,223,11.0,13.0,35,0.00,,SKC,0.00,VWS V14.01,2013-08-06 23:25:00,
2013-08-06 18:30:00,100.9,69.9,22.07,SW,223,6.0,12.0,37,0.00,,SKC,0.00,VWS V14.01,2013-08-06 23:30:00,
2013-08-06 18:31:00,100.3,68.5,22.07,SSW,209,8.0,13.0,36,0.00,,SKC,0.00,VWS V14.01,2013-08-06 23:31:00,
2013-08-06 18:37:00,100.1,68.4,22.07,SW,234,3.0,10.0,36,0.00,,SKC,0.00,VWS V14.01,2013-08-06 23:37:00,
2013-08-06 18:43:00,100.0,67.5,22.07,South,182,2.0,10.0,35,0.00,,SKC,0.00,VWS V14.01,2013-08-06 23:43:00,
2013-08-06 18:49:00,99.9,66.5,22.07,SSW,208,7.0,10.0,34,0.00,,SKC,0.00,VWS V14.01,2013-08-06 23:49:00,
2013-08-06 18:55:00,99.8,66.4,22.07,SSE,167,7.0,11.0,34,0.00,,SKC,0.00,VWS V14.01,2013-08-06 23:55:00,
2013-08-06 19:00:00,101.0,69.2,22.07,SW,222,2.0,12.0,36,0.00,,SKC,0.00,VWS V14.01,2013-08-07 00:00:00,
2013-08-06 19:01:00,99.5,65.3,22.07,SSW,192,6.0,11.0,33,0.00,,SKC,0.00,VWS V14.01,2013-08-07 00:01:00,
2013-08-06 19:07:00,99.4,66.1,22.07,SE,138,4.0,9.0,34,0.00,,SKC,0.00,VWS V14.01,2013-08-07 00:07:00,
2013-08-06 19:13:00,99.3,66.8,22.07,SSW,201,7.0,10.0,35,0.00,,SKC,0.00,VWS V14.01,2013-08-07 00:13:00,
2013-08-06 19:19:00,99.1,66.7,22.07,SW,234,3.0,10.0,35,0.00,,SKC,0.00,VWS V14.01,2013-08-07 00:19:00,
2013-08-06 19:25:00,98.9,67.3,22.07,SSW,210,4.0,10.0,36,0.00,,SKC,0.00,VWS V14.01,2013-08-07 00:25:00,
2013-08-06 19:30:00,100.3,67.7,22.07,SSW,213,9.0,13.0,35,0.00,,SKC,0.00,VWS V14.01,2013-08-07 00:30:00,
2013-08-06 19:31:00,98.8,67.2,22.07,SW,223,11.0,11.0,36,0.00,,SKC,0.00,VWS V14.01,2013-08-07 00:31:00,
2013-08-06 19:37:00,98.6,67.1,22.07,SSW,201,4.0,8.0,36,0.00,,SKC,0.00,VWS V14.01,2013-08-07 00:37:00,
2013-08-06 19:43:00,98.3,67.6,22.07,SW,231,6.0,8.0,37,0.00,,SKC,0.00,VWS V14.01,2013-08-07 00:43:00,
2013-08-06 19:49:00,97.9,68.0,22.07,SW,224,1.0,8.0,38,0.00,,SKC,0.00,VWS V14.01,2013-08-07 00:49:00,
2013-08-06 19:55:00,97.6,67.7,22.07,SSE,163,3.0,8.0,38,0.00,,SKC,0.00,VWS V14.01,2013-08-07 00:55:00,
2013-08-06 20:00:00,99.5,65.3,22.07,SE,137,8.0,11.0,33,0.00,,SKC,0.00,VWS V14.01,2013-08-07 01:00:00,
2013-08-06 20:01:00,97.4,67.6,22.07,SW,234,4.0,8.0,38,0.00,,SKC,0.00,VWS V14.01,2013-08-07 01:01:00,
2013-08-06 20:07:00,97.3,67.5,22.07,SW,229,4.0,5.0,38,0.00,,SKC,0.00,VWS V14.01,2013-08-07 01:07:00,
2013-08-06 20:13:00,96.9,67.1,22.07,SSW,200,1.0,6.0,38,0.00,,SKC,0.00,VWS V14.01,2013-08-07 01:13:00,
2013-08-06 20:19:00,96.6,66.8,22.07,SSW,200,3.0,6.0,38,0.00,,SKC,0.00,VWS V14.01,2013-08-07 01:19:00,
2013-08-06 20:25:00,96.3,66.6,22.07,South,189,1.0,6.0,38,0.00,,SKC,0.00,VWS V14.01,2013-08-07 01:25:00,
2013-08-06 20:30:00,98.7,67.1,22.07,South,171,7.0,11.0,36,0.00,,SKC,0.00,VWS V14.01,2013-08-07 01:30:00,
2013-08-06 20:31:00,96.1,66.4,22.07,SSW,192,2.0,6.0,38,0.00,,SKC,0.00,VWS V14.01,2013-08-07 01:31:00,
2013-08-06 20:37:00,95.9,66.2,22.07,South,188,1.0,4.0,38,0.00,,SKC,0.00,VWS V14.01,2013-08-07 01:37:00,
2013-08-06 20:43:00,95.7,66.8,22.07,SSW,213,0.0,4.0,39,0.00,,SKC,0.00,VWS V14.01,2013-08-07 01:43:00,
2013-08-06 20:49:00,95.5,66.6,22.07,SW,223,4.0,5.0,39,0.00,,SKC,0.00,VWS V14.01,2013-08-07 01:49:00,
2013-08-06 20:55:00,95.3,66.4,22.07,South,190,2.0,5.0,39,0.00,,SKC,0.00,VWS V14.01,2013-08-07 01:55:00,
2013-08-06 21:00:00,97.4,67.6,22.07,SSW,198,5.0,8.0,38,0.00,,SKC,0.00,VWS V14.01,2013-08-07 02:00:00,
2013-08-06 21:01:00,95.1,66.3,22.07,SSW,195,3.0,6.0,39,0.00,,SKC,0.00,VWS V14.01,2013-08-07 02:01:00,
2013-08-06 21:07:00,94.9,66.1,22.07,SSW,209,3.0,5.0,39,0.00,,SKC,0.00,VWS V14.01,2013-08-07 02:07:00,
2013-08-06 21:14:00,94.7,65.9,22.07,SSW,202,2.0,5.0,39,0.00,,SKC,0.00,VWS V14.01,2013-08-07 02:14:00,
2013-08-06 21:20:00,94.4,65.7,22.07,SSW,202,1.0,5.0,39,0.00,,SKC,0.00,VWS V14.01,2013-08-07 02:20:00,
2013-08-06 21:26:00,94.4,64.9,22.07,South,187,3.0,5.0,38,0.00,,SKC,0.00,VWS V14.01,2013-08-07 02:26:00,
2013-08-06 21:30:00,96.1,66.4,22.07,SSW,192,0.0,6.0,38,0.00,,SKC,0.00,VWS V14.01,2013-08-07 02:30:00,
2013-08-06 21:32:00,94.5,64.2,22.07,SSW,199,4.0,5.0,37,0.00,,SKC,0.00,VWS V14.01,2013-08-07 02:32:00,
2013-08-06 21:38:00,94.5,64.2,22.07,SSW,199,1.0,4.0,37,0.00,,SKC,0.00,VWS V14.01,2013-08-07 02:38:00,
2013-08-06 21:44:00,94.2,64.7,22.07,SSW,198,0.0,4.0,38,0.00,,SKC,0.00,VWS V14.01,2013-08-07 02:44:00,
2013-08-06 21:50:00,93.2,66.7,22.07,SSW,198,2.0,4.0,42,0.00,,SKC,0.00,VWS V14.01,2013-08-07 02:50:00,
2013-08-06 21:56:00,91.7,66.7,22.07,SSW,198,1.0,4.0,44,0.00,,SKC,0.00,VWS V14.01,2013-08-07 02:56:00,
2013-08-06 22:00:00,90.8,66.6,22.07,SSW,198,0.0,4.0,45,0.00,,SKC,0.00,VWS V14.01,2013-08-07 03:00:00,
2013-08-06 22:02:00,90.8,66.6,22.07,SSW,198,0.0,4.0,45,0.00,,SKC,0.00,VWS V14.01,2013-08-07 03:02:00,
2013-08-06 22:08:00,90.4,66.8,22.07,SSW,198,0.0,1.0,46,0.00,,SKC,0.00,VWS V14.01,2013-08-07 03:08:00,
2013-08-06 22:14:00,90.0,66.5,22.07,SSW,198,0.0,1.0,46,0.00,,SKC,0.00,VWS V14.01,2013-08-07 03:14:00,
2013-08-06 22:20:00,89.6,66.7,22.07,SSW,198,0.0,1.0,47,0.00,,SKC,0.00,VWS V14.01,2013-08-07 03:20:00,
2013-08-06 22:26:00,89.3,67.7,22.07,SSW,198,0.0,1.0,49,0.00,,SKC,0.00,VWS V14.01,2013-08-07 03:26:00,
2013-08-06 22:30:00,94.5,64.2,22.07,SSW,199,4.0,5.0,37,0.00,,SKC,0.00,VWS V14.01,2013-08-07 03:30:00,
2013-08-06 22:32:00,89.1,67.5,22.07,SSW,198,0.0,1.0,49,0.00,,SKC,0.00,VWS V14.01,2013-08-07 03:32:00,
2013-08-06 22:38:00,88.7,67.1,22.07,SSW,198,0.0,0.0,49,0.00,,SKC,0.00,VWS V14.01,2013-08-07 03:38:00,
2013-08-06 22:44:00,88.4,66.8,22.07,SSW,198,0.0,1.0,49,0.00,,SKC,0.00,VWS V14.01,2013-08-07 03:44:00,
2013-08-06 22:50:00,88.3,66.7,22.07,SSW,198,0.0,1.0,49,0.00,,SKC,0.00,VWS V14.01,2013-08-07 03:50:00,
2013-08-06 22:56:00,88.2,66.7,22.07,SSW,198,0.0,1.0,49,0.00,,SKC,0.00,VWS V14.01,2013-08-07 03:56:00,
2013-08-06 23:00:00,90.8,66.6,22.07,SSW,198,0.0,4.0,45,0.00,,SKC,0.00,VWS V14.01,2013-08-07 04:00:00,
2013-08-06 23:02:00,87.9,66.4,22.07,SSW,198,0.0,1.0,49,0.00,,SKC,0.00,VWS V14.01,2013-08-07 04:02:00,
2013-08-06 23:05:00,87.7,66.8,22.07,SSW,198,0.0,2.0,50,0.00,,SKC,0.00,VWS V14.01,2013-08-07 04:05:00,
2013-08-06 23:11:00,87.5,67.2,22.07,SSW,198,0.0,2.0,51,0.00,,SKC,0.00,VWS V14.01,2013-08-07 04:11:00,
2013-08-06 23:14:00,87.4,67.6,22.07,SSW,198,0.0,2.0,52,0.00,,SKC,0.00,VWS V14.01,2013-08-07 04:14:00,
2013-08-06 23:17:00,87.2,67.4,22.07,SSW,198,2.0,3.0,52,0.00,,SKC,0.00,VWS V14.01,2013-08-07 04:17:00,
2013-08-06 23:23:00,87.0,67.8,22.07,SSW,198,0.0,3.0,53,0.00,,SKC,0.00,VWS V14.01,2013-08-07 04:23:00,
2013-08-06 23:29:00,86.9,67.7,22.07,SSW,198,0.0,3.0,53,0.00,,SKC,0.00,VWS V14.01,2013-08-07 04:29:00,
2013-08-06 23:30:00,89.1,67.5,22.07,SSW,198,0.0,1.0,49,0.00,,SKC,0.00,VWS V14.01,2013-08-07 04:30:00,
2013-08-06 23:35:00,86.9,67.7,22.07,SSW,198,0.0,2.0,53,0.00,,SKC,0.00,VWS V14.01,2013-08-07 04:35:00,
2013-08-06 23:41:00,86.9,68.3,22.07,SSW,198,0.0,2.0,54,0.00,,SKC,0.00,VWS V14.01,2013-08-07 04:41:00,
2013-08-06 23:47:00,86.7,68.1,22.07,SSW,198,0.0,2.0,54,0.00,,SKC,0.00,VWS V14.01,2013-08-07 04:47:00,
2013-08-06 23:53:00,86.7,68.1,22.07,SSW,198,1.0,3.0,54,0.00,,SKC,0.00,VWS V14.01,2013-08-07 04:53:00,
2013-08-06 23:59:00,86.7,68.1,22.07,ESE,118,3.0,5.0,54,0.00,,SKC,0.00,VWS V14.01,2013-08-07 04:59:00,